TimeEDT,TemperatureF,Dew PointF,Humidity,Sea Level PressureIn,VisibilityMPH,Wind Direction,Wind SpeedMPH,Gust SpeedMPH,PrecipitationIn,Events,Conditions,WindDirDegrees,DateUTC
12:15 AM,71.6,60.8,69,29.99,10.0,WSW,3.5,-,N/A,,Clear,240,2013-05-17 04:15:00
12:35 AM,71.6,60.8,69,29.99,10.0,WSW,3.5,-,N/A,,Clear,250,2013-05-17 04:35:00
12:55 AM,71.6,60.8,69,29.99,10.0,Calm,Calm,-,N/A,,Clear,0,2013-05-17 04:55:00
1:15 AM,69.8,60.8,73,30.00,10.0,Calm,Calm,-,N/A,,Clear,0,2013-05-17 05:15:00
1:35 AM,69.8,60.8,73,30.00,10.0,Calm,Calm,-,N/A,,Clear,0,2013-05-17 05:35:00
1:55 AM,68.0,60.8,78,30.00,10.0,Calm,Calm,-,N/A,,Clear,0,2013-05-17 05:55:00
2:15 AM,68.0,60.8,78,30.00,10.0,Calm,Calm,-,N/A,,Clear,0,2013-05-17 06:15:00
2:35 AM,66.2,60.8,83,30.00,10.0,Calm,Calm,-,N/A,,Clear,0,2013-05-17 06:35:00
2:55 AM,66.2,60.8,83,30.00,10.0,Calm,Calm,-,N/A,,Clear,0,2013-05-17 06:55:00
3:15 AM,66.2,60.8,83,30.00,10.0,Calm,Calm,-,N/A,,Clear,0,2013-05-17 07:15:00
3:35 AM,64.4,60.8,88,30.00,10.0,Calm,Calm,-,N/A,,Clear,0,2013-05-17 07:35:00
3:55 AM,62.6,62.6,100,30.00,10.0,Calm,Calm,-,N/A,,Clear,0,2013-05-17 07:55:00
4:15 AM,-9999,-9999,N/A,30.01,10.0,Calm,Calm,-,N/A,,Clear,0,2013-05-17 08:15:00
4:35 AM,-9999,-9999,N/A,30.01,10.0,Calm,Calm,-,N/A,,Clear,0,2013-05-17 08:35:00
4:55 AM,-9999,-9999,N/A,30.02,7.0,Calm,Calm,-,N/A,,Clear,0,2013-05-17 08:55:00
5:15 AM,-9999,-9999,N/A,30.03,7.0,Calm,Calm,-,N/A,,Clear,0,2013-05-17 09:15:00
5:35 AM,-9999,-9999,N/A,30.04,7.0,Calm,Calm,-,N/A,,Clear,0,2013-05-17 09:35:00
5:55 AM,-9999,-9999,N/A,30.05,10.0,Calm,Calm,-,N/A,,Clear,0,2013-05-17 09:55:00
6:15 AM,-9999,-9999,N/A,30.05,10.0,Calm,Calm,-,N/A,,Clear,0,2013-05-17 10:15:00
6:35 AM,-9999,-9999,N/A,30.06,10.0,Calm,Calm,-,N/A,,Clear,0,2013-05-17 10:35:00
6:55 AM,-9999,-9999,N/A,30.06,7.0,Calm,Calm,-,N/A,,Clear,0,2013-05-17 10:55:00
7:15 AM,-9999,-9999,N/A,30.07,7.0,Calm,Calm,-,N/A,,Clear,0,2013-05-17 11:15:00
7:35 AM,-9999,-9999,N/A,30.07,10.0,Calm,Calm,-,N/A,,Clear,0,2013-05-17 11:35:00
8:15 AM,68.0,68.0,100,30.08,10.0,Calm,Calm,-,N/A,,Clear,0,2013-05-17 12:15:00
8:35 AM,68.0,68.0,100,30.09,10.0,Calm,Calm,-,N/A,,Clear,0,2013-05-17 12:35:00
8:55 AM,69.8,66.2,88,30.09,10.0,Calm,Calm,-,N/A,,Clear,0,2013-05-17 12:55:00
9:15 AM,69.8,62.6,78,30.10,10.0,Calm,Calm,-,N/A,,Clear,0,2013-05-17 13:15:00
9:35 AM,71.6,62.6,73,30.10,10.0,Calm,Calm,-,N/A,,Clear,0,2013-05-17 13:35:00
9:55 AM,73.4,62.6,69,30.10,10.0,Calm,Calm,-,N/A,,Clear,0,2013-05-17 13:55:00
10:15 AM,73.4,60.8,65,30.10,10.0,NNE,3.5,-,N/A,,Clear,30,2013-05-17 14:15:00
10:35 AM,77.0,59.0,54,30.10,10.0,North,4.6,-,N/A,,Clear,360,2013-05-17 14:35:00
10:55 AM,77.0,60.8,57,30.10,10.0,NNE,3.5,-,N/A,,Clear,20,2013-05-17 14:55:00
11:15 AM,78.8,59.0,51,30.10,10.0,East,3.5,-,N/A,,Clear,90,2013-05-17 15:15:00
11:35 AM,78.8,59.0,51,30.10,10.0,Calm,Calm,-,N/A,,Clear,0,2013-05-17 15:35:00
11:55 AM,80.6,59.0,48,30.10,10.0,Calm,Calm,-,N/A,,Clear,0,2013-05-17 15:55:00
12:15 PM,80.6,57.2,45,30.10,10.0,Calm,Calm,-,N/A,,Clear,0,2013-05-17 16:15:00
12:35 PM,80.6,55.4,42,30.10,10.0,East,4.6,-,N/A,,Clear,90,2013-05-17 16:35:00
12:55 PM,80.6,55.4,42,30.10,10.0,NNW,3.5,-,N/A,,Clear,340,2013-05-17 16:55:00
1:15 PM,82.4,55.4,39,30.09,10.0,East,3.5,-,N/A,,Clear,90,2013-05-17 17:15:00
1:35 PM,82.4,55.4,39,30.09,10.0,Calm,Calm,-,N/A,,Clear,0,2013-05-17 17:35:00
1:55 PM,82.4,53.6,37,30.08,10.0,Calm,Calm,-,N/A,,Clear,0,2013-05-17 17:55:00
2:15 PM,82.4,55.4,39,30.08,10.0,Calm,Calm,-,N/A,,Clear,0,2013-05-17 18:15:00
2:35 PM,84.2,55.4,37,30.08,10.0,Calm,Calm,-,N/A,,Scattered Clouds,0,2013-05-17 18:35:00
3:15 PM,84.2,55.4,37,30.08,10.0,Calm,Calm,-,N/A,,Clear,0,2013-05-17 19:15:00
3:35 PM,84.2,55.4,37,30.07,10.0,Calm,Calm,-,N/A,,Clear,0,2013-05-17 19:35:00
3:55 PM,84.2,53.6,35,30.07,10.0,Calm,Calm,-,N/A,,Clear,0,2013-05-17 19:55:00
4:15 PM,86.0,53.6,33,30.06,10.0,South,3.5,-,N/A,,Clear,170,2013-05-17 20:15:00
4:35 PM,86.0,53.6,33,30.06,10.0,Calm,Calm,-,N/A,,Clear,0,2013-05-17 20:35:00
4:55 PM,86.0,53.6,33,30.06,10.0,Calm,Calm,-,N/A,,Clear,0,2013-05-17 20:55:00
5:15 PM,86.0,53.6,33,30.05,10.0,Calm,Calm,-,N/A,,Clear,0,2013-05-17 21:15:00
5:35 PM,84.2,55.4,37,30.05,10.0,Calm,Calm,-,N/A,,Clear,0,2013-05-17 21:35:00
5:55 PM,84.2,57.2,40,30.05,10.0,Calm,Calm,-,N/A,,Clear,0,2013-05-17 21:55:00
6:15 PM,82.4,60.8,48,30.05,10.0,Calm,Calm,-,N/A,,Clear,0,2013-05-17 22:15:00
6:35 PM,82.4,62.6,51,30.05,10.0,Calm,Calm,-,N/A,,Clear,0,2013-05-17 22:35:00
6:55 PM,82.4,59.0,45,30.05,10.0,Calm,Calm,-,N/A,,Clear,0,2013-05-17 22:55:00
7:15 PM,77.0,68.0,74,30.05,10.0,Calm,Calm,-,N/A,,Clear,0,2013-05-17 23:15:00
7:35 PM,77.0,68.0,74,30.05,10.0,Calm,Calm,-,N/A,,Clear,0,2013-05-17 23:35:00
7:55 PM,73.4,66.2,78,30.05,10.0,Calm,Calm,-,N/A,,Clear,0,2013-05-17 23:55:00
8:15 PM,73.4,64.4,73,30.06,10.0,Calm,Calm,-,N/A,,Clear,0,2013-05-18 00:15:00
8:35 PM,71.6,64.4,78,30.06,10.0,Calm,Calm,-,N/A,,Clear,0,2013-05-18 00:35:00
8:55 PM,71.6,62.6,73,30.06,10.0,East,3.5,-,N/A,,Clear,100,2013-05-18 00:55:00
9:15 PM,71.6,62.6,73,30.07,10.0,Calm,Calm,-,N/A,,Clear,0,2013-05-18 01:15:00
9:35 PM,71.6,62.6,73,30.08,10.0,East,5.8,-,N/A,,Scattered Clouds,90,2013-05-18 01:35:00
9:55 PM,73.4,62.6,69,30.09,10.0,East,4.6,-,N/A,,Overcast,100,2013-05-18 01:55:00
10:15 PM,73.4,60.8,65,30.09,10.0,East,6.9,-,N/A,,Mostly Cloudy,100,2013-05-18 02:15:00
10:35 PM,73.4,59.0,61,30.10,10.0,ESE,5.8,-,N/A,,Mostly Cloudy,110,2013-05-18 02:35:00
10:55 PM,73.4,59.0,61,30.10,10.0,ESE,4.6,-,N/A,,Scattered Clouds,110,2013-05-18 02:55:00
11:15 PM,71.6,59.0,64,30.10,10.0,East,6.9,-,N/A,,Scattered Clouds,90,2013-05-18 03:15:00
11:35 PM,71.6,59.0,64,30.10,10.0,SE,5.8,-,N/A,,Mostly Cloudy,130,2013-05-18 03:35:00
11:55 PM,71.6,59.0,64,30.10,10.0,East,3.5,-,N/A,,Scattered Clouds,90,2013-05-18 03:55:00